OE5RLP-14 Weather Reports


time (UTC)temp
C
wind
direction
speed
KPH
gust
KPH
rain 1hr
cm
rain 24hr
cm
rain mn
cm
humidity
%
barometer
mb
20260502195427 14 142 3.2 4.8 0.00 0.00 0.00 51 1019.8
20260502194425 15 135 3.2 4.8 0.00 0.00 0.00 49 1020.0
20260502193425 15 143 3.2 4.8 0.00 0.00 0.00 48 1020.1
20260502192445 16 129 3.2 4.8 0.00 0.00 0.00 46 1019.9
20260502191444 16 133 4.8 6.4 0.00 0.00 0.00 45 1020.0
20260502190443 17 129 4.8 4.8 0.00 0.00 0.00 43 1020.0
20260502185440 17 104 8.0 11.3 0.00 0.00 0.00 42 1020.1
20260502184437 17 81 4.8 6.4 0.00 0.00 0.00 42 1020.1
20260502183434 18 103 8.0 11.3 0.00 0.00 0.00 42 1019.9
20260502182431 18 85 12.9 14.5 0.00 0.00 0.00 41 1019.8
20260502181430 18 78 12.9 16.1 0.00 0.00 0.00 39 1019.8
20260502180427 18 82 9.7 12.9 0.00 0.00 0.00 39 1019.9
20260502170438 20 88 11.3 16.1 0.00 0.00 0.00 35 1020.2
20260502163430 21 93 8.0 12.9 0.00 0.00 0.00 29 1020.5
20260502162427 21 86 22.5 29.0 0.00 0.00 0.00 31 1020.6
20260502161424 21 79 16.1 20.9 0.00 0.00 0.00 28 1020.7
20260502160424 21 91 20.9 30.6 0.00 0.00 0.00 30 1020.6
20260502151437 22 94 20.9 30.6 0.00 0.00 0.00 30 1021.2
20260502150434 22 87 11.3 14.5 0.00 0.00 0.00 28 1021.5
20260502130451 23 74 9.7 14.5 0.00 0.00 0.00 32 1022.6
20260502123424 22 64 19.3 33.8 0.00 0.00 0.00 35 1022.7
20260502122425 22 89 11.3 14.5 0.00 0.00 0.00 39 1022.9
20260502121505 22 86 16.1 20.9 0.00 0.00 0.00 37 1023.0
20260502120443 22 83 6.4 12.9 0.00 0.00 0.00 42 1023.1
20260502115442 22 70 11.3 20.9 0.00 0.00 0.00 40 1023.3
20260502114437 22 82 14.5 17.7 0.00 0.00 0.00 43 1023.3
20260502113436 21 83 12.9 17.7 0.00 0.00 0.00 42 1023.5
20260502112431 21 93 17.7 20.9 0.00 0.00 0.00 41 1023.5
20260502111428 21 92 12.9 14.5 0.00 0.00 0.00 43 1023.7
20260502110426 21 81 11.3 20.9 0.00 0.00 0.00 46 1023.7
20260502105450 20 103 8.0 16.1 0.00 0.00 0.00 42 1024.0
20260502104424 20 62 11.3 16.1 0.00 0.00 0.00 43 1023.9
20260502103424 20 81 6.4 9.7 0.00 0.00 0.00 46 1024.2
20260502102444 20 81 6.4 11.3 0.00 0.00 0.00 46 1024.2
20260502101441 20 346 6.4 11.3 0.00 0.00 0.00 47 1024.2
20260502100439 19 42 9.7 14.5 0.00 0.00 0.00 47 1024.5
20260502091446 17 32 4.8 6.4 0.00 0.00 0.00 53 1025.0
20260502090424 17 118 4.8 12.9 0.00 0.00 0.00 56 1025.0
20260502071426 13 148 4.8 6.4 0.00 0.00 0.00 62 1025.7
20260502070424 13 121 4.8 6.4 0.00 0.00 0.00 62 1025.8
20260502065444 13 158 1.6 3.2 0.00 0.00 0.00 64 1025.9
20260502064440 13 141 1.6 3.2 0.00 0.00 0.00 63 1026.0
20260502063438 13 121 3.2 4.8 0.00 0.00 0.00 64 1026.0
20260502062436 13 101 0.0 1.6 0.00 0.00 0.00 64 1026.1
20260502061434 15 104 1.6 1.6 0.00 0.00 0.00 59 1026.1
20260502060449 14 141 1.6 3.2 0.00 0.00 0.00 60 1025.7
20260502055428 13 0.0 0.0 0.00 0.00 0.00 64 1025.9
20260502054426 12 163 1.6 1.6 0.00 0.00 0.00 64 1025.9
20260502053424 12 173 3.2 4.8 0.00 0.00 0.00 63 1025.8
20260502052424 12 140 4.8 9.7 0.00 0.00 0.00 66 1026.2
20260502051445 11 124 3.2 3.2 0.00 0.00 0.00 66 1026.1
20260502050442 10 138 3.2 4.8 0.00 0.00 0.00 69 1026.1
20260502045441 9 133 3.2 4.8 0.00 0.00 0.00 72 1025.9
20260502044456 8 161 1.6 3.2 0.00 0.00 0.00 73 1026.0
20260502043435 8 141 3.2 4.8 0.00 0.00 0.00 77 1026.0
20260502042430 7 159 6.4 6.4 0.00 0.00 0.00 80 1025.7
20260502041427 6 169 4.8 4.8 0.00 0.00 0.00 83 1025.9
20260502040425 5 166 4.8 6.4 0.00 0.00 0.00 85 1025.9
20260502035424 4 141 6.4 9.7 0.00 0.00 0.00 85 1025.8
20260502034425 4 183 8.0 11.3 0.00 0.00 0.00 85 1026.0
20260502033424 4 160 6.4 9.7 0.00 0.00 0.00 84 1025.8
20260502032443 4 154 6.4 9.7 0.00 0.00 0.00 84 1025.8
20260502031442 4 155 8.0 11.3 0.00 0.00 0.00 83 1025.9
20260502030438 4 171 6.4 9.7 0.00 0.00 0.00 84 1025.9
20260502025435 4 185 4.8 6.4 0.00 0.00 0.00 82 1026.0
20260502024432 4 173 6.4 11.3 0.00 0.00 0.00 82 1026.1
20260502023429 5 177 4.8 6.4 0.00 0.00 0.00 81 1026.3
20260502022427 5 156 8.0 9.7 0.00 0.00 0.00 81 1026.5
20260502021424 5 172 4.8 9.7 0.00 0.00 0.00 80 1026.2
20260502020423 5 151 8.0 9.7 0.00 0.00 0.00 79 1026.2
20260502015424 5 177 6.4 11.3 0.00 0.00 0.00 79 1026.2
20260502014447 5 141 6.4 9.7 0.00 0.00 0.00 78 1026.2
20260502013444 5 159 4.8 4.8 0.00 0.00 0.00 78 1026.5
20260502012440 5 160 6.4 9.7 0.00 0.00 0.00 78 1026.3
20260502011437 5 154 6.4 9.7 0.00 0.00 0.00 77 1026.5
20260502010456 6 170 6.4 9.7 0.00 0.00 0.00 77 1026.7
20260502005431 6 165 4.8 6.4 0.00 0.00 0.00 75 1026.7
20260502004450 6 169 4.8 6.4 0.00 0.00 0.00 74 1026.6
20260502003427 6 153 6.4 9.7 0.00 0.00 0.00 74 1027.0
20260502002445 7 158 6.4 6.4 0.00 0.00 0.00 74 1026.8
20260502001424 6 165 4.8 6.4 0.00 0.00 0.00 73 1026.7
20260502000424 6 162 6.4 9.7 0.00 0.00 0.00 73 1026.9
20260501235444 7 166 3.2 9.7 0.00 0.00 0.00 74 1027.0
20260501234503 7 143 4.8 6.4 0.00 0.00 0.00 73 1027.2
20260501233439 7 169 6.4 6.4 0.00 0.00 0.00 73 1027.4
20260501232436 7 189 4.8 6.4 0.00 0.00 0.00 72 1027.4
20260501231513 7 162 4.8 6.4 0.00 0.00 0.00 72 1027.4
20260501230430 7 158 4.8 4.8 0.00 0.00 0.00 71 1027.4
20260501225429 7 166 6.4 6.4 0.00 0.00 0.00 70 1027.5
20260501224426 7 173 4.8 6.4 0.00 0.00 0.00 70 1027.4
20260501223425 7 174 4.8 6.4 0.00 0.00 0.00 68 1027.5
20260501222425 8 191 3.2 6.4 0.00 0.00 0.00 69 1027.3
20260501221424 8 182 4.8 6.4 0.00 0.00 0.00 68 1027.5
20260501220445 8 155 4.8 6.4 0.00 0.00 0.00 67 1027.5
20260501215442 8 159 3.2 4.8 0.00 0.00 0.00 68 1027.4
20260501214438 8 152 4.8 4.8 0.00 0.00 0.00 66 1027.5
20260501213437 8 172 4.8 6.4 0.00 0.00 0.00 65 1027.4
20260501212432 8 157 6.4 6.4 0.00 0.00 0.00 65 1027.5
20260501211429 9 160 4.8 4.8 0.00 0.00 0.00 64 1027.4
20260501210427 9 172 4.8 6.4 0.00 0.00 0.00 64 1027.6
20260501205445 9 176 4.8 4.8 0.00 0.00 0.00 65 1027.6
20260501204424 9 159 3.2 4.8 0.00 0.00 0.00 63 1027.5
20260501203425 10 151 4.8 6.4 0.00 0.00 0.00 61 1027.4
20260501202447 10 163 4.8 4.8 0.00 0.00 0.00 60 1027.6
20260501201502 10 160 3.2 4.8 0.00 0.00 0.00 58 1027.6
20260501200439 11 151 3.2 4.8 0.00 0.00 0.00 58 1027.7